This demonstration page uses our WeatherBlox Daily Observations layout. Learn more.

Left ArrowRight Arrow

44.89941, -97.11507

Hourly Observations for October 20, 2021

Temp ( °F °C ) Dew Point ( °F °C ) Humidity (%) Winds ( mph kmh ) Pressure ( in mb ) Visibility ( mi km ) Precip ( " mm )
12:53 am 00:53 Cloudy 46 7.8 45 7.2 96 96 NNE 15 24 29.99 1016 10 16 0.00 0.00
1:53 am 01:53 Cloudy 46 7.8 45 7.2 96 96 NNE 17 28 29.98 1015 10 16 0.00 0.00
2:53 am 02:53 Cloudy 46 7.8 45 7.2 96 96 NNE 17 28 29.97 1015 10 16 0.00 0.00
3:53 am 03:53 Cloudy 46 7.8 45 7.2 96 96 NNE 15 24 29.97 1015 10 16 0.00 0.00
4:53 am 04:53 Cloudy 46 7.8 45 7.2 96 96 NNE 14 22 29.96 1015 8 13 0.00 0.00
5:53 am 05:53 Cloudy with Rain 45 7.2 45 7.2 100 100 NNE 15 24 29.97 1015 4 6 0.07 1.78
6:45 am 06:45 Cloudy 45 7.2 44 6.7 97 97 NNE 20 31 29.94 1014 10 16 0.03 0.76
6:53 am 06:53 Cloudy 45 7.2 44 6.7 97 97 NNE 21 33 29.93 1014 10 16 0.03 0.76
7:20 am 07:20 Cloudy 45 7.2 44 6.7 97 97 NNE 23 37 29.93 1013 10 16 0.00 0.00
7:53 am 07:53 Cloudy 45 7.2 44 6.7 97 97 NNE 17 28 29.93 1014 8 13 0.00 0.00
8:22 am 08:22 Cloudy with Heavy Rain 45 7.2 44 6.7 97 97 NE 16 26 29.95 1014 3 4 0.20 5.08
8:29 am 08:29 Cloudy with Light Rain 45 7.2 44 6.7 97 97 NNE 18 30 29.95 1014 6 10 0.20 5.08
8:37 am 08:37 Cloudy with Light Rain 45 7.2 44 6.7 97 97 NE 15 24 29.95 1014 10 16 0.20 5.08
8:53 am 08:53 Cloudy with Light Rain 45 7.2 44 6.7 97 97 NNE 13 20 29.96 1015 10 16 0.21 5.33
9:53 am 09:53 Cloudy 45 7.2 44 6.7 97 97 NNE 18 30 29.95 1014 10 16 0.00 0.00
10:53 am 10:53 Cloudy with Rain 44 6.7 43 6.1 96 96 NNE 17 28 29.96 1014 7 11 0.07 1.78
11:22 am 11:22 Cloudy with Heavy Rain 44 6.7 43 6.1 96 96 NNE 15 24 29.96 1015 3 4 0.13 3.30
11:53 am 11:53 Cloudy with Heavy Rain 44 6.7 43 6.1 96 96 N 12 19 29.97 1015 2 3 0.31 7.87
12:05 pm 12:05 Cloudy with Heavy Rain 44 6.7 43 6.1 96 96 N 8 13 29.98 1015 2 2 0.12 3.05
12:23 pm 12:23 Cloudy with Rain 44 6.7 43 6.1 96 96 N 12 19 29.97 1015 3 4 0.22 5.59
12:31 pm 12:31 Cloudy with Rain 44 6.7 43 6.1 96 96 N 12 19 29.97 1015 3 5 0.25 6.35
12:40 pm 12:40 Cloudy with Rain 44 6.7 43 6.1 96 96 N 12 19 29.96 1015 3 4 0.29 7.37
12:43 pm 12:43 Cloudy with Rain 44 6.7 43 6.1 96 96 N 15 24 29.95 1014 3 5 0.29 7.37
12:53 pm 12:53 Cloudy with Rain 44 6.7 43 6.1 96 96 N 17 28 29.93 1014 4 6 0.32 8.13
12:59 pm 12:59 Cloudy with Rain 44 6.7 43 6.1 96 96 N 16 26 29.93 1014 4 6 0.01 0.25
1:34 pm 13:34 Cloudy with Light Rain 42 5.6 41 5 96 96 N 22 35 29.92 1013 6 10 0.05 1.27
1:53 pm 13:53 Cloudy with Light Rain 41 5 40 4.4 96 96 N 26 43 29.90 1013 6 10 0.07 1.78
2:39 pm 14:39 Cloudy with Heavy Rain 39 3.9 39 3.9 100 100 NNW 16 26 29.96 1015 3 4 0.14 3.56
2:53 pm 14:53 Cloudy with Heavy Rain 39 3.9 38 3.3 96 96 NNW 12 19 29.95 1014 3 4 0.21 5.33
3:08 pm 15:08 Cloudy with Rain 39 3.9 39 3.9 100 100 N 15 24 29.97 1015 3 5 0.06 1.52
3:18 pm 15:18 Cloudy with Rain 39 3.9 38 3.3 96 96 N 14 22 29.97 1015 4 6 0.09 2.29
3:41 pm 15:41 Cloudy with Rain 39 3.9 39 3.9 100 100 N 14 22 29.97 1015 4 6 0.18 4.57
3:53 pm 15:53 Cloudy with Rain 39 3.9 39 3.9 100 100 NNW 18 30 29.95 1014 4 6 0.22 5.59
4:02 pm 16:02 Cloudy with Rain 39 3.9 38 3.3 96 96 NNW 15 24 29.97 1015 5 8 0.02 0.51
4:27 pm 16:27 Cloudy with Light Rain 39 3.9 38 3.3 96 96 NNW 15 24 29.98 1015 8 13 0.06 1.52
4:53 pm 16:53 Cloudy with Light Rain 39 3.9 38 3.3 96 96 NNW 15 24 29.96 1015 9 14 0.08 2.03
5:53 pm 17:53 Cloudy with Light Rain 39 3.9 38 3.3 96 96 N 17 28 29.97 1015 7 11 0.05 1.27
6:53 pm 18:53 Cloudy with Light Rain 38 3.3 38 3.3 100 100 N 15 24 29.99 1016 9 14 0.02 0.51
7:53 pm 19:53 Cloudy 39 3.9 38 3.3 96 96 N 16 26 30.00 1016 8 13 0.00 0.00
8:53 pm 20:53 Cloudy with Mist and Fog 39 3.9 39 3.9 100 100 N 18 30 30.01 1016 4 6 0.00 0.00
9:53 pm 21:53 Cloudy 39 3.9 38 3.3 96 96 N 17 28 30.03 1017 10 16 0.00 0.00
10:53 pm 22:53 Cloudy with Mist and Fog 38 3.3 37 2.8 97 97 N 16 26 30.06 1018 6 10 0.00 0.00
11:53 pm 23:53 Cloudy 38 3.3 36 2.2 93 93 N 18 30 30.07 1018 10 16 0.00 0.00

Powered by AerisWeather